Location: Les Coudrans
(46.1056°N, 1.1158°W)
Time: 20:12:11
(UTC+00:00)

CZ-2C R/B - Pass Details

Date: 03 March 2021
Orbit: 783 x 871 km, 98.2° (Epoch: 20 April)

Event Time Altitude Azimuth Distance (km) Brightness Sun altitude
Rises 19:41:21 0° 10° (N) 3,435 5.9 -19.4°
Reaches altitude 10° 19:43:46 10° 7° (N) 2,483 5.2 -19.8°
Maximum altitude 19:49:11 61° 289° (WNW) 947 3.2 -20.7°
Drops below altitude 10° 19:54:27 10° 210° (SSW) 2,409 5.3 -21.6°
Sets 19:56:46 0° 207° (SSW) 3,324 6.0 -22.0°
